Flag for U.S.A. Weather past 2 weeks in Overland Park, Kansas, U.S.A.

Now
33 °F

Fog.


Feels Like: 30 °F
Forecast: 26 / 43 °F
Wind: 3 mph from West

Location: Johnson County Executive Airport

Current Time: Dec 19, 2014 at 11:17:55 PM

Latest Report: Dec 19, 2014 at 10:53 PM


Visibility: 2 mi

Pressure: 30.23 "Hg

Humidity: 100%

Dew point: 33 °F

Location of Overland ParkLocation

Historic Weather in Overland Park — Graph

°F

Overland Park temperature yesterday

Maximum temperature yesterday: 33 °F (at 12:53 PM)
Minimum temperature yesterday: 28 °F (at 12:58 AM)
Average temperature yesterday: 31 °F

Past Weeks' High & Low Weather Summary

 TemperatureHumidityPressure
High62 °F (Dec 14, 1:53 PM)100% (Dec 5, 1:53 AM)30.57 "Hg (Dec 5, 1:53 AM)
Low25 °F (Dec 10, 3:53 AM)49% (Dec 8, 3:53 PM)29.55 "Hg (Dec 15, 6:53 AM)
Average38 °F90%30.21 "Hg
* Reported Dec 4 10:53 PM — Dec 19 10:00 PM, Overland Park, Weather by CustomWeather, © 2014

Note: Actual official high and low records may vary slightly from our data, if they occured in-between our weather recording intervals... More about our weather records

Advertising

Overland Park weather history for previous 24 hours

 ConditionsComfort  
Time TempWeatherWind HumidityBarometerVisibility
10:00 PM
Dec 19
33 °FFog.No wind100%30.19 "Hg2 mi
8:53 PM33 °FFog.3 mph100%30.22 "Hg1 mi
7:53 PM33 °FFog.No wind100%30.22 "Hg2 mi
6:53 PM33 °FFog.3 mph96%30.22 "Hg4 mi
5:53 PM33 °FFog.No wind92%30.22 "Hg6 mi
4:53 PM33 °FFog.No wind92%30.22 "Hg6 mi
3:53 PM33 °FLow clouds.No wind92%30.22 "Hg7 mi
2:53 PM33 °FFog.No wind88%30.22 "Hg6 mi
1:53 PM33 °FLow clouds.3 mph88%30.24 "Hg8 mi
12:53 PM33 °FOvercast.No wind85%30.26 "Hg9 mi
11:53 AM32 °FMostly cloudy.No wind88%30.28 "Hg7 mi
10:53 AM31 °FIce fog.No wind96%30.30 "Hg3 mi
9:53 AM31 °FIce fog.5 mph96%30.30 "Hg2 mi
8:53 AM31 °FIce fog.6 mph92%30.28 "Hg3 mi
7:53 AM31 °FIce fog.No wind92%30.27 "Hg5 mi
6:53 AM31 °FIce fog.5 mph92%30.26 "Hg6 mi
5:53 AM31 °FIce fog.5 mph92%30.25 "Hg6 mi
4:53 AM31 °FIce fog.No wind92%30.25 "Hg6 mi
3:53 AM32 °FIce fog.3 mph92%30.26 "Hg5 mi
2:53 AM32 °FIce fog.No wind88%30.27 "Hg6 mi
1:53 AM32 °FIce fog.No wind92%30.27 "Hg6 mi
12:53 AM31 °FLow clouds.No wind92%30.27 "Hg7 mi
11:53 PM
Dec 18
32 °FIce fog.3 mph92%30.27 "Hg5 mi
Weather by CustomWeather, © 2014

See weather overviewHow to use our weather pages